Location: �bnet
(46.9957°N, 8.4908°E)
Time: 15:16:05
(UTC+00:00)

USA 307 - Pass Details

Date: 11 May 2021
Orbit: 566 x 577 km, 54.0° (Epoch: 10 May)

Event Time Altitude Azimuth Distance (km) Brightness Sun altitude
Rises 19:27:51 0° 297° (WNW) 2,774 8.7 -6.3°
Reaches altitude 10° 19:30:14 10° 305° (NW) 1,877 7.4 -6.7°
Maximum altitude 19:34:14 38° 15° (NNE) 878 4.1 -7.2°
Drops below altitude 10° 19:38:15 10° 84° (E) 1,880 5.1 -7.8°
Enters shadow 19:39:32 - 90° (E) 2,355 5.6 -7.9°
